This demonstration page uses our WeatherBlox Daily Observations layout. Learn more.

Left ArrowRight Arrow

Hourly Observations for May 2, 2018

Temp ( °F °C ) Dew Point ( °F °C ) Humidity (%) Winds ( mph kmh ) Pressure ( in mb ) Visibility ( mi km ) Precip ( " mm )
12:53 am 00:53 Clear 57 13.9 46 7.8 67 67 Calm 30.11 1020 10 16 0.00 0.00
1:53 am 01:53 Clear 58 14.4 46 7.8 65 65 E 3 6 30.11 1020 10 16 0.00 0.00
2:53 am 02:53 Clear 60 15.6 46 7.8 60 60 SE 3 6 30.10 1019 10 16 0.00 0.00
3:53 am 03:53 Clear 58 14.4 47 8.3 67 67 E 5 7 30.10 1019 10 16 0.00 0.00
4:53 am 04:53 Clear 61 16.1 47 8.3 60 60 ESE 5 7 30.09 1019 10 16 0.00 0.00
5:53 am 05:53 Clear 58 14.4 47 8.3 67 67 E 5 7 30.11 1020 10 16 0.00 0.00
6:53 am 06:53 Mostly Sunny 56 13.3 48 8.9 75 75 E 5 7 30.13 1020 10 16 0.00 0.00
7:53 am 07:53 Mostly Cloudy 61 16.1 51 10.6 70 70 Calm 30.14 1021 10 16 0.00 0.00
8:53 am 08:53 Mostly Sunny 69 20.6 54 12.2 59 59 VRB 7 11 30.15 1021 10 16 0.00 0.00
9:53 am 09:53 Partly Cloudy 73 22.8 56 13.3 55 55 WSW 12 19 30.14 1021 10 16 0.00 0.00
10:53 am 10:53 Sunny 77 25 58 14.4 52 52 SW 14 22 30.14 1021 10 16 0.00 0.00
11:53 am 11:53 Mostly Sunny 79 26.1 60 15.6 52 52 SSW 12 19 30.13 1020 10 16 0.00 0.00
12:53 pm 12:53 Mostly Sunny 81 27.2 60 15.6 49 49 SSW 12 19 30.12 1020 10 16 0.00 0.00
1:53 pm 13:53 Sunny 83 28.3 60 15.6 46 46 SSW 15 24 30.10 1019 10 16 0.00 0.00
2:53 pm 14:53 Sunny 84 28.9 60 15.6 44 44 SW 17 28 30.08 1019 10 16 0.00 0.00
3:53 pm 15:53 Mostly Cloudy 83 28.3 60 15.6 46 46 SW 10 17 30.06 1018 10 16 0.00 0.00
4:53 pm 16:53 Partly Cloudy 83 28.3 60 15.6 46 46 SW 13 20 30.04 1017 10 16 0.00 0.00
5:53 pm 17:53 Sunny 84 28.9 60 15.6 44 44 SSW 9 15 30.05 1018 10 16 0.00 0.00
6:53 pm 18:53 Sunny 83 28.3 59 15 44 44 SSW 10 17 30.04 1017 10 16 0.00 0.00
7:53 pm 19:53 Sunny 81 27.2 60 15.6 49 49 SSW 8 13 30.02 1017 10 16 0.00 0.00
8:53 pm 20:53 Clear 79 26.1 60 15.6 52 52 S 6 9 30.02 1017 10 16 0.00 0.00
9:53 pm 21:53 Clear 77 25 60 15.6 56 56 SSW 7 11 30.02 1017 10 16 0.00 0.00
10:53 pm 22:53 Clear 76 24.4 60 15.6 58 58 SSW 7 11 30.03 1017 10 16 0.00 0.00
11:53 pm 23:53 Clear 75 23.9 60 15.6 60 60 SSW 5 7 30.04 1017 10 16 0.00 0.00

Powered by AerisWeather